| time (UTC) | temp F | wind direction | speed MPH | gust MPH | rain 1hr in | rain 24hr in | rain mn in | humidity % | barometer mb |
| 20260507033054 | 45 | 176 | 0.0 | 0.0 | 0.00 | 0.08 | 0.05 | 47 | 1018.3 |
| 20260507031550 | 47 | 176 | 0.0 | 0.0 | 0.00 | 0.08 | 0.05 | 48 | 1018.2 |
| 20260507030045 | 46 | 177 | 0.0 | 0.0 | 0.00 | 0.08 | 0.05 | 47 | 1017.6 |
| 20260507024540 | 47 | 265 | 0.0 | 0.0 | 0.00 | 0.09 | 0.05 | 43 | 1017.5 |
| 20260507023036 | 50 | 265 | 0.0 | 0.0 | 0.00 | 0.09 | 0.05 | 46 | 1017.3 |
| 20260507021531 | 53 | 265 | 0.0 | 0.0 | 0.00 | 0.09 | 0.05 | 40 | 1017.3 |
| 20260507020029 | 54 | 265 | 0.0 | 0.0 | 0.00 | 0.09 | 0.05 | 36 | 1017.3 |
| 20260507014539 | 56 | 265 | 0.0 | 0.0 | 0.00 | 0.09 | 0.05 | 35 | 1017.4 |
| 20260507013034 | 56 | 263 | 0.0 | 0.0 | 0.00 | 0.09 | 0.05 | 33 | 1017.4 |
| 20260507011529 | 56 | 263 | 0.0 | 0.0 | 0.00 | 0.09 | 0.05 | 33 | 1017.2 |
| 20260507010009 | 57 | 255 | 0.0 | 0.0 | 0.00 | 0.09 | 0.05 | 32 | 1017.2 |
| 20260507004504 | 57 | 290 | 0.0 | 0.0 | 0.00 | 0.09 | 0.05 | 29 | 1017.2 |
| 20260507003101 | 57 | 285 | 0.0 | 0.0 | 0.00 | 0.09 | 0.05 | 30 | 1017.0 |
| 20260507001619 | 58 | 273 | 0.0 | 0.0 | 0.00 | 0.09 | 0.05 | 32 | 1016.9 |
| 20260507000051 | 58 | 323 | 0.0 | 0.0 | 0.00 | 0.09 | 0.05 | 32 | 1016.7 |
| 20260506234547 | 58 | 274 | 0.0 | 0.0 | 0.00 | 0.09 | 0.05 | 28 | 1016.7 |
| 20260506233046 | 57 | 77 | 0.0 | 0.0 | 0.00 | 0.09 | 0.05 | 31 | 1016.6 |
| 20260506231543 | 57 | 301 | 0.0 | 0.0 | 0.00 | 0.09 | 0.05 | 32 | 1016.6 |
| 20260506230033 | 56 | 327 | 0.0 | 0.0 | 0.00 | 0.09 | 0.05 | 34 | 1017.0 |
| 20260506224529 | 56 | 322 | 0.0 | 0.0 | 0.00 | 0.09 | 0.05 | 37 | 1017.0 |
| 20260506223025 | 56 | 336 | 0.0 | 0.0 | 0.00 | 0.09 | 0.05 | 35 | 1017.4 |
| 20260506221520 | 55 | 298 | 0.0 | 0.0 | 0.00 | 0.09 | 0.05 | 37 | 1017.7 |
| 20260506220016 | 54 | 355 | 0.0 | 0.0 | 0.00 | 0.09 | 0.05 | 36 | 1018.1 |
| 20260506214511 | 54 | 78 | 0.0 | 0.0 | 0.00 | 0.09 | 0.05 | 34 | 1018.3 |
| 20260506213011 | 54 | 317 | 0.0 | 0.0 | 0.00 | 0.09 | 0.05 | 36 | 1018.4 |
| 20260506211502 | 53 | 275 | 0.0 | 0.0 | 0.00 | 0.09 | 0.05 | 40 | 1018.5 |
| 20260506210116 | 52 | 315 | 0.0 | 0.0 | 0.00 | 0.09 | 0.05 | 38 | 1018.5 |
| 20260506204554 | 51 | 15 | 0.0 | 0.0 | 0.00 | 0.13 | 0.05 | 38 | 1018.7 |
| 20260506203050 | 50 | 319 | 0.0 | 0.0 | 0.00 | 0.13 | 0.05 | 41 | 1018.9 |
| 20260506201547 | 49 | 236 | 0.0 | 0.0 | 0.00 | 0.13 | 0.05 | 38 | 1018.9 |
| 20260506194538 | 49 | 284 | 0.0 | 0.0 | 0.00 | 0.13 | 0.05 | 42 | 1019.1 |
| 20260506193031 | 48 | 257 | 0.0 | 0.0 | 0.00 | 0.13 | 0.05 | 44 | 1019.2 |
| 20260506191526 | 47 | 266 | 0.0 | 0.0 | 0.00 | 0.13 | 0.05 | 46 | 1019.5 |
| 20260506190021 | 46 | 293 | 0.0 | 0.0 | 0.00 | 0.13 | 0.05 | 44 | 1019.7 |
| 20260506184519 | 46 | 311 | 0.0 | 0.0 | 0.00 | 0.16 | 0.05 | 45 | 1019.8 |
| 20260506183013 | 45 | 277 | 0.0 | 0.0 | 0.00 | 0.16 | 0.05 | 45 | 1019.9 |
| 20260506181509 | 45 | 314 | 0.0 | 0.0 | 0.00 | 0.16 | 0.05 | 40 | 1019.8 |
| 20260506180005 | 43 | 323 | 0.0 | 0.0 | 0.00 | 0.16 | 0.05 | 43 | 1019.8 |
| 20260506174604 | 43 | 286 | 0.0 | 0.0 | 0.00 | 0.21 | 0.05 | 22 | 1019.9 |
| 20260506173116 | 43 | 289 | 0.0 | 0.0 | 0.00 | 0.21 | 0.05 | 19 | 1019.8 |
| 20260506171559 | 43 | 304 | 0.0 | 0.0 | 0.00 | 0.21 | 0.05 | 14 | 1019.7 |
| 20260506170046 | 41 | 320 | 0.0 | 0.0 | 0.00 | 0.21 | 0.05 | 8 | 1019.6 |
| 20260506164542 | 40 | 317 | 0.0 | 0.0 | 0.00 | 0.24 | 0.05 | 4 | 1019.5 |
| 20260506163046 | 40 | 303 | 0.0 | 0.0 | 0.00 | 0.24 | 0.05 | 1 | 1019.4 |
| 20260506161544 | 38 | 304 | 0.0 | 0.0 | 0.00 | 0.24 | 0.05 | 1 | 1019.2 |
| 20260506160029 | 38 | 304 | 0.0 | 0.0 | 0.00 | 0.24 | 0.05 | 1 | 1019.2 |
| 20260506154524 | 37 | 316 | 0.0 | 0.0 | 0.00 | 0.24 | 0.05 | 1 | 1019.0 |
| 20260506153020 | 37 | 311 | 0.0 | 0.0 | 0.00 | 0.24 | 0.05 | 1 | 1018.9 |
| 20260506151516 | 36 | 312 | 0.0 | 0.0 | 0.00 | 0.24 | 0.05 | 1 | 1018.8 |
| 20260506150011 | 36 | 337 | 0.0 | 0.0 | 0.01 | 0.24 | 0.05 | 1 | 1018.5 |
| 20260506144506 | 37 | 338 | 0.0 | 0.0 | 0.01 | 0.24 | 0.05 | 1 | 1018.4 |
| 20260506143002 | 36 | 336 | 0.0 | 0.0 | 0.01 | 0.24 | 0.05 | 1 | 1018.3 |
| 20260506141558 | 35 | 321 | 0.0 | 0.0 | 0.01 | 0.24 | 0.05 | 1 | 1018.2 |
| 20260506140054 | 34 | 5 | 0.0 | 3.0 | 0.00 | 0.23 | 0.04 | 1 | 1017.9 |
| 20260506134614 | 33 | 333 | 0.0 | 0.0 | 0.00 | 0.24 | 0.04 | 1 | 1017.6 |
| 20260506133044 | 32 | 325 | 0.0 | 0.0 | 0.00 | 0.24 | 0.04 | 1 | 1017.2 |
| 20260506131557 | 31 | 325 | 0.0 | 0.0 | 0.00 | 0.24 | 0.04 | 1 | 1016.9 |
| 20260506130037 | 31 | 325 | 0.0 | 0.0 | 0.00 | 0.24 | 0.04 | 1 | 1016.6 |
| 20260506124531 | 31 | 325 | 0.0 | 0.0 | 0.00 | 0.25 | 0.04 | 1 | 1016.1 |
| 20260506123027 | 31 | 325 | 0.0 | 0.0 | 0.00 | 0.25 | 0.04 | 1 | 1015.8 |
| 20260506121523 | 32 | 325 | 0.0 | 0.0 | 0.00 | 0.25 | 0.04 | 1 | 1015.6 |
| 20260506120018 | 32 | 325 | 0.0 | 0.0 | 0.00 | 0.25 | 0.04 | 1 | 1015.3 |
| 20260506114522 | 32 | 325 | 0.0 | 0.0 | 0.00 | 0.25 | 0.04 | 1 | 1015.5 |
| 20260506113009 | 32 | 321 | 0.0 | 0.0 | 0.00 | 0.25 | 0.04 | 1 | 1015.3 |
| 20260506111505 | 33 | 336 | 0.0 | 0.0 | 0.00 | 0.25 | 0.04 | 1 | 1015.0 |
| 20260506110004 | 33 | 336 | 0.0 | 0.0 | 0.00 | 0.25 | 0.04 | 1 | 1014.8 |
| 20260506104604 | 33 | 327 | 0.0 | 0.0 | 0.00 | 0.25 | 0.04 | 1 | 1014.5 |
| 20260506103052 | 33 | 284 | 2.0 | 8.0 | 0.00 | 0.25 | 0.04 | 1 | 1014.9 |
| 20260506101548 | 33 | 306 | 4.0 | 10.0 | 0.00 | 0.25 | 0.04 | 1 | 1015.2 |
| 20260506100044 | 34 | 313 | 5.0 | 9.0 | 0.00 | 0.25 | 0.04 | 1 | 1015.1 |
| 20260506094539 | 34 | 346 | 8.0 | 15.0 | 0.00 | 0.25 | 0.04 | 1 | 1014.9 |
| 20260506093034 | 34 | 315 | 14.0 | 18.0 | 0.00 | 0.25 | 0.04 | 1 | 1014.6 |
| 20260506091530 | 34 | 291 | 10.0 | 15.0 | 0.00 | 0.25 | 0.04 | 1 | 1013.9 |
| 20260506090025 | 35 | 319 | 5.0 | 11.0 | 0.01 | 0.25 | 0.04 | 1 | 1013.5 |
| 20260506084522 | 35 | 319 | 11.0 | 16.0 | 0.01 | 0.25 | 0.04 | 1 | 1013.2 |
| 20260506083015 | 35 | 317 | 10.0 | 15.0 | 0.03 | 0.25 | 0.04 | 1 | 1013.0 |
| 20260506081519 | 35 | 340 | 3.0 | 15.0 | 0.04 | 0.25 | 0.04 | 1 | 1012.9 |
| 20260506073059 | 37 | 328 | 0.0 | 0.0 | 0.01 | 0.22 | 0.01 | 1 | 1011.9 |
| 20260506071556 | 40 | 328 | 0.0 | 0.0 | 0.00 | 0.21 | 0.00 | 1 | 1011.0 |
| 20260506061540 | 43 | 322 | 0.0 | 0.0 | 0.03 | 0.21 | 0.00 | 1 | 1009.1 |
| 20260506044512 | 46 | 163 | 0.0 | 0.0 | 0.00 | 0.18 | 0.18 | 1 | 1007.3 |
| 20260506043009 | 46 | 163 | 0.0 | 0.0 | 0.00 | 0.18 | 0.18 | 1 | 1007.2 |
| 20260506041504 | 46 | 163 | 0.0 | 0.0 | 0.00 | 0.18 | 0.18 | 1 | 1006.9 |
| 20260506040100 | 46 | 168 | 0.0 | 0.0 | 0.00 | 0.18 | 0.18 | 1 | 1006.8 |
| 20260506034558 | 46 | 171 | 0.0 | 0.0 | 0.00 | 0.18 | 0.18 | 1 | 1006.7 |